Location: U-46 Planetarium
(42.0300°N, 88.2740°W)
Time: 12:42:37
(UTC-05:00)

Gbstr 26 Del rocket - Pass Details

Date: 16 December 2017
Orbit: 493 x 1265 km, 51.8° (Epoch: 18 July)

Event Time Altitude Azimuth Distance (km) Brightness Sun altitude
Rises 17:46:12 0° 227° (SW) 4,209 8.6 -14.9°
Reaches altitude 10° 17:49:07 10° 227° (SW) 3,234 7.7 -15.4°
Maximum altitude 17:57:11 79° 142° (SE) 1,212 4.4 -16.8°
Enters shadow 18:01:50 25° 59° (ENE) 2,077 5.1 -17.7°
